Location: Vaughan
(31.9146°N, 97.1736°W)
Time: 00:55:03
(UTC+00:00)

Cosmos 1980 Rocket - Pass Details

Date: 10 December 2025
Orbit: 830 x 847 km, 71.0° (Epoch: 19 January)

Event Time Altitude Azimuth Distance (km) Brightness Sun altitude
Rises 01:24:42 0° 224° (SW) 3,389 6.2 -24.8°
Reaches altitude 10° 01:27:24 10° 234° (SW) 2,455 5.5 -25.3°
Maximum altitude 01:32:22 32° 296° (WNW) 1,419 3.8 -26.4°
Enters shadow 01:36:45 13° 355° (N) 2,260 4.3 -27.3°
